Weather History for Three Rivers, MI

Change the Weather History Date:

Friday, June 14, 2013

  Actual Average Record
Temperature  
Mean Temperature 66 °F -  
Max Temperature 77 °F 81 °F 94 °F (1987)
Min Temperature 54 °F 57 °F 39 °F (1978)
Growing Degree Days 16 (Base 50)    
Moisture  
Dew Point 56 °F    
Average Humidity 76    
Maximum Humidity 99    
Minimum Humidity 44    
Precipitation  
Precipitation 0.00 in - - ()
Sea Level Pressure  
Sea Level Pressure 30.06 in    
Wind  
Wind Speed 4 mph (North)    
Max Wind Speed 15 mph    
Max Gust Speed -    
Visibility 10 miles    
Events      
Averages and records for this station are not official NWS values.
T = Trace of Precipitation, MM = Missing Value Source: NWS Daily Summary

Daily Weather History Graph

Daily Weather History Graph

Search for Another Location

Airport:

Trip Planner

Search our weather history database for the weather conditions in past years. The results will help you decide how hot, cold, wet, or windy it might be!

Date:

Astronomy

Jun. 14, 2013 Rise Set
Actual Time 6:06 AM EDT 9:19 PM EDT
Civil Twilight 5:31 AM EDT 9:53 PM EDT
Nautical Twilight 4:47 AM EDT 10:37 PM EDT
Astronomical Twilight 3:54 AM EDT 11:31 PM EDT
Moon 11:45 AM EDT (6/14) 12:20 AM EDT (6/14)
Length of Visible Light 16h 21m
Length of Day
15h 12m
Waxing Crescent, 30% of the Moon is Illuminated
Jun 14
Waxing Crescent
Jun 16
First Quarter
Jun 23
Full
Jun 30
Last Quarter
Jul 8
New

Hourly Weather History & Observations

Time (EDT) Temp. Dew Point Humidity Pressure Visibility Wind Dir Wind Speed Gust Speed Precip Events Conditions
12:14 AM 58.1 °F 55.8 °F 92% 29.99 in 10.0 mi NW 3.5 mph - N/A   Clear
12:34 AM 58.1 °F 55.6 °F 91% 30.00 in 10.0 mi NW 5.8 mph - N/A   Clear
12:54 AM 57.7 °F 55.6 °F 92% 30.00 in 10.0 mi NW 3.5 mph - N/A   Clear
1:14 AM 57.4 °F 55.4 °F 93% 29.99 in 10.0 mi NNW 3.5 mph - N/A   Clear
1:34 AM 57.2 °F 55.4 °F 94% 30.00 in 10.0 mi NW 3.5 mph - N/A   Clear
1:54 AM 56.7 °F 55.2 °F 95% 30.00 in 10.0 mi NW 3.5 mph - N/A   Clear
2:14 AM 56.7 °F 55.4 °F 96% 30.00 in 10.0 mi NW 3.5 mph - N/A   Clear
2:33 AM 56.5 °F 55.4 °F 96% 30.00 in 10.0 mi NW 3.5 mph - N/A   Clear
2:54 AM 56.3 °F 55.4 °F 97% 30.00 in 10.0 mi Calm Calm - N/A   Clear
3:14 AM 55.8 °F 54.7 °F 96% 29.99 in 10.0 mi North 3.5 mph - N/A   Clear
3:34 AM 55.9 °F 55.0 °F 97% 30.00 in 10.0 mi NW 3.5 mph - N/A   Clear
3:54 AM 55.9 °F 55.0 °F 97% 30.01 in 10.0 mi NNW 3.5 mph - N/A   Clear
4:14 AM 55.8 °F 55.0 °F 97% 30.01 in 10.0 mi Calm Calm - N/A   Clear
4:34 AM 55.6 °F 54.7 °F 97% 30.01 in 10.0 mi Calm Calm - N/A   Clear
4:54 AM 55.4 °F 54.7 °F 97% 30.00 in 10.0 mi Calm Calm - N/A   Clear
5:14 AM 54.9 °F 54.5 °F 99% 30.02 in 10.0 mi NW 3.5 mph - N/A   Clear
5:34 AM 54.9 °F 54.5 °F 99% 30.02 in 10.0 mi NW 4.6 mph - N/A   Clear
5:54 AM 55.0 °F 54.5 °F 98% 30.02 in 10.0 mi NNW 3.5 mph - N/A   Clear
6:14 AM 54.5 °F 54.0 °F 98% 30.03 in 10.0 mi NW 4.6 mph - N/A   Clear
6:34 AM 54.9 °F 54.5 °F 99% 30.04 in 10.0 mi NW 3.5 mph - N/A   Clear
6:54 AM 55.8 °F 55.2 °F 98% 30.05 in 10.0 mi NNW 4.6 mph - N/A   Clear
7:13 AM 56.7 °F 55.8 °F 97% 30.06 in 10.0 mi NNW 5.8 mph - N/A   Clear
7:34 AM 58.1 °F 56.3 °F 94% 30.07 in 10.0 mi Calm Calm - N/A   Clear
7:54 AM 58.8 °F 56.5 °F 92% 30.08 in 10.0 mi Calm Calm - N/A   Clear
8:14 AM 59.9 °F 56.7 °F 89% 30.07 in 10.0 mi NE 4.6 mph - N/A   Clear
8:34 AM 60.8 °F 56.7 °F 86% 30.08 in 10.0 mi NE 5.8 mph - N/A   Clear
8:54 AM 61.9 °F 57.4 °F 85% 30.09 in 10.0 mi ENE 9.2 mph - N/A   Clear
9:14 AM 62.6 °F 57.2 °F 82% 30.09 in 10.0 mi ENE 9.2 mph - N/A   Clear
9:34 AM 63.9 °F 57.9 °F 81% 30.11 in 10.0 mi NE 6.9 mph - N/A   Clear
9:54 AM 64.6 °F 57.9 °F 79% 30.12 in 10.0 mi North 5.8 mph - N/A   Clear
10:14 AM 66.2 °F 58.5 °F 76% 30.11 in 10.0 mi ENE 5.8 mph - N/A   Clear
10:34 AM 66.4 °F 57.9 °F 74% 30.11 in 10.0 mi NE 4.6 mph - N/A   Clear
10:54 AM 68.0 °F 58.3 °F 71% 30.10 in 10.0 mi NNE 6.9 mph - N/A   Clear
11:14 AM 68.5 °F 57.9 °F 69% 30.12 in 10.0 mi North 8.1 mph - N/A   Clear
11:34 AM 69.4 °F 57.9 °F 67% 30.12 in 10.0 mi NNE 4.6 mph - N/A   Clear
11:54 AM 69.8 °F 57.6 °F 65% 30.12 in 10.0 mi NNE 3.5 mph - N/A   Scattered Clouds
12:14 PM 70.7 °F 58.5 °F 65% 30.10 in 10.0 mi NE 5.8 mph - N/A   Clear
12:34 PM 71.1 °F 57.6 °F 62% 30.11 in 10.0 mi NNE 5.8 mph - N/A   Clear
12:54 PM 72.1 °F 58.6 °F 62% 30.10 in 10.0 mi NNE 4.6 mph - N/A   Clear
1:14 PM 72.9 °F 57.6 °F 59% 30.09 in 10.0 mi NE 5.8 mph - N/A   Clear
1:34 PM 73.4 °F 57.2 °F 57% 30.09 in 10.0 mi ENE 5.8 mph - N/A   Clear
1:54 PM 73.6 °F 56.5 °F 55% 30.08 in 10.0 mi NNE 6.9 mph - N/A   Clear
2:14 PM 74.3 °F 57.4 °F 55% 30.07 in 10.0 mi East 6.9 mph - N/A   Clear
2:34 PM 74.7 °F 56.8 °F 54% 30.07 in 10.0 mi ENE 6.9 mph - N/A   Clear
2:54 PM 74.7 °F 55.6 °F 51% 30.07 in 10.0 mi East 6.9 mph - N/A   Clear
3:14 PM 75.6 °F 57.4 °F 53% 30.07 in 10.0 mi Calm Calm - N/A   Clear
3:34 PM 76.1 °F 57.2 °F 52% 30.07 in 10.0 mi North 5.8 mph - N/A   Clear
3:54 PM 76.5 °F 55.8 °F 49% 30.07 in 10.0 mi Calm Calm - N/A   Clear
4:14 PM 76.5 °F 55.2 °F 48% 30.07 in 10.0 mi NW 4.6 mph - N/A   Clear
4:34 PM 75.2 °F 52.3 °F 45% 30.07 in 10.0 mi Calm Calm - N/A   Scattered Clouds
4:54 PM 76.3 °F 53.4 °F 45% 30.06 in 10.0 mi Calm Calm - N/A   Scattered Clouds
5:14 PM 77.7 °F 54.5 °F 45% 30.05 in 10.0 mi SW 3.5 mph - N/A   Mostly Cloudy
5:34 PM 75.0 °F 55.0 °F 50% 30.06 in 10.0 mi North 3.5 mph - N/A   Scattered Clouds
5:54 PM 76.6 °F 54.7 °F 46% 30.06 in 10.0 mi Calm Calm - N/A   Scattered Clouds
6:14 PM 76.3 °F 54.7 °F 47% 30.05 in 10.0 mi North 3.5 mph - N/A   Mostly Cloudy
6:34 PM 77.0 °F 53.8 °F 44% 30.04 in 10.0 mi Calm Calm - N/A   Scattered Clouds
6:54 PM 77.0 °F 54.1 °F 45% 30.04 in 10.0 mi WNW 8.1 mph - N/A   Clear
7:14 PM 74.1 °F 59.9 °F 61% 30.05 in 10.0 mi WNW 15.0 mph - N/A   Scattered Clouds
7:34 PM 72.7 °F 59.5 °F 63% 30.05 in 10.0 mi WNW 11.5 mph - N/A   Scattered Clouds
7:54 PM 71.6 °F 58.5 °F 63% 30.05 in 10.0 mi NW 10.4 mph - N/A   Clear
8:14 PM 70.3 °F 58.1 °F 65% 30.06 in 10.0 mi WNW 6.9 mph - N/A   Clear
8:34 PM 68.9 °F 57.6 °F 67% 30.05 in 10.0 mi NW 6.9 mph - N/A   Clear
8:54 PM 68.0 °F 57.4 °F 69% 30.06 in 10.0 mi NW 4.6 mph - N/A   Clear
9:14 PM 67.1 °F 57.2 °F 70% 30.05 in 10.0 mi Calm Calm - N/A   Clear
9:34 PM 64.6 °F 58.6 °F 81% 30.06 in 7.0 mi Calm Calm - N/A   Clear
9:54 PM 64.8 °F 58.3 °F 79% 30.06 in 10.0 mi Calm Calm - N/A   Clear
10:14 PM 62.6 °F 57.7 °F 84% 30.06 in 10.0 mi Calm Calm - N/A   Clear
10:33 PM 61.9 °F 57.6 °F 86% 30.06 in 10.0 mi Calm Calm - N/A   Clear
10:54 PM 61.2 °F 57.6 °F 88% 30.06 in 10.0 mi Calm Calm - N/A   Clear
11:14 PM 60.6 °F 57.4 °F 89% 30.07 in 10.0 mi Calm Calm - N/A   Clear
11:34 PM 59.5 °F 57.4 °F 93% 30.06 in 10.0 mi Calm Calm - N/A   Clear
11:54 PM 60.3 °F 58.1 °F 93% 30.06 in 10.0 mi Calm Calm - N/A   Clear